Flag for U.S.A. Weather past 2 weeks in St. Augustine, Florida, U.S.A.

Now
59 °F

Clear.


Feels Like: 57 °F
Forecast: 41 / 61 °F
Wind: 10 mph from Northwest

Location: St. Augustine Airport

Current Time: Jan 27, 2015 at 6:28:22 PM

Latest Report: Jan 27, 2015 at 5:58 PM


Visibility: 10 mi

Pressure: 29.93 "Hg

Humidity: 46%

Dew point: 38 °F

Location of St. AugustineLocation

Historic Weather in St. Augustine — Graph

°F

St. Augustine temperature yesterday

Maximum temperature yesterday: 60 °F (at 3:58 PM)
Minimum temperature yesterday: 47 °F (at 11:58 PM)
Average temperature yesterday: 54 °F

Past Weeks' High & Low Weather Summary

 TemperatureHumidityPressure
High69 °F (Jan 18, 2:58 PM)100% (Jan 12, 5:02 PM)30.27 "Hg (Jan 12, 5:02 PM)
Low38 °F (Jan 25, 6:58 AM)30% (Jan 19, 3:58 PM)29.72 "Hg (Jan 24, 4:58 AM)
Average55 °F82%30.08 "Hg
* Reported Jan 12 4:58 PM — Jan 27 4:58 PM, St. Augustine, Weather by CustomWeather, © 2014

Note: Actual official high and low records may vary slightly from our data, if they occured in-between our weather recording intervals... More about our weather records

Advertising

St. Augustine weather history for previous 24 hours

 ConditionsComfort  
Time TempWeatherWind HumidityBarometerVisibility
4:58 PM
Jan 27
64 °FSunny.16 mph38%29.89 "Hg10 mi
3:58 PM65 °FSunny.15 mph36%29.87 "Hg10 mi
2:58 PM64 °FSunny.14 mph38%29.86 "Hg10 mi
1:58 PM62 °FSunny.16 mph41%29.89 "Hg10 mi
12:58 PM59 °FSunny.17 mph44%29.92 "Hg10 mi
11:58 AM56 °FSunny.10 mph46%29.97 "Hg10 mi
10:58 AM53 °FSunny.10 mph51%30.00 "Hg10 mi
9:58 AM50 °FSunny.13 mph59%30.01 "Hg10 mi
8:58 AM46 °FSunny.8 mph68%30.00 "Hg10 mi
7:58 AM41 °FSunny.6 mph80%29.99 "Hg10 mi
6:58 AM40 °FClear.5 mph80%29.98 "Hg10 mi
5:58 AM41 °FClear.5 mph76%29.97 "Hg10 mi
4:58 AM41 °FClear.8 mph76%29.94 "Hg10 mi
3:58 AM42 °FClear.9 mph73%29.97 "Hg10 mi
2:58 AM43 °FClear.7 mph71%29.96 "Hg10 mi
1:58 AM45 °FClear.8 mph65%29.96 "Hg10 mi
12:58 AM46 °FClear.N/A66%29.94 "Hg10 mi
11:58 PM
Jan 26
47 °FClear.9 mph66%29.94 "Hg10 mi
10:58 PM48 °FClear.8 mph66%29.93 "Hg10 mi
9:58 PM49 °FClear.13 mph66%29.92 "Hg10 mi
8:58 PM50 °FClear.8 mph63%29.91 "Hg10 mi
7:58 PM52 °FClear.12 mph61%29.89 "Hg10 mi
6:58 PM54 °FClear.9 mph57%29.88 "Hg10 mi
Weather by CustomWeather, © 2014

See weather overviewHow to use our weather pages